sat.trackr.live / text

‹ back to catalog

STARLINK-31700

NORAD 59436 · 2024-065R

PAYLOAD ACTIVE UNKNOWN

§ Identity

Operator
Country
US
Launch date
2024-04-07
Launch site
AFWTR
Launch vehicle
Mass (kg)
RCS (m²)

Purposes: comms

External: N2YO · Heavens-Above · Gunter

§ Orbital elements

Epoch: 2026-05-25T02:51:31.991328Z

Period
94.11 min
Inclination
53.1610°
Eccentricity
0.0001528
Mean motion
15.30160891 rev/d
Perigee alt
474.3 km
Apogee alt
476.4 km
Semi-major
6,853.5 km
B*
3.2283e-4
RAAN
286.4861°
Arg perigee
84.4399°
Mean anomaly
275.6776°
Rev number
12,063

§ Raw data

STARLINK-317001 59436U 24065R   26145.11912027  .00009202  00000+0  32283-3 0  99982 59436  53.1610 286.4861 0001528  84.4399 275.6776 15.30160891120639

JSON: /api/v1/satellites/59436 · /tle

For live sub-satellite position, see the globe view (requires WebGL).

§ Visibility from observer

Set your observer location to see the next 7 days of passes ≥ 10°. The values pass through the URL so the page stays shareable.

No JS? Fill the form by hand. The geolocation button needs JavaScript.